Theta_e
316 317 325 324 324 333 341 343 341 347 351 351 351 350 352 352 352 350 349 347 330 325 324 324 326 328 330 332 332 333 332 331 331 330 329 328 328 328 328 329 329 330 330 330 330 329 329 329 329
316 321 325 324 324 332 337 339 343 345 350 350 350 351 352 353 351 350 349 334 330 330 327 325 324 324 325 326 327 328 327 327 327 328 329 329 328 328 328 329 330 330 329 328 327 327 327 327 327
318 324 324 317 319 329 337 338 337 342 350 349 351 351 351 352 351 349 342 337 335 333 332 329 327 325 324 324 325 325 325 325 325 325 325 326 326 326 327 327 327 327 328 328 329 329 330 330 331
321 324 322 319 323 323 337 337 340 347 345 348 351 351 351 351 350 348 342 340 336 334 333 332 330 328 326 324 324 324 325 325 325 326 326 327 327 327 328 328 328 329 330 331 334 338 342 342 341
323 322 316 318 319 334 336 338 344 347 349 350 351 352 353 352 350 350 349 348 342 335 333 332 332 332 332 331 330 329 329 329 329 330 330 331 333 334 335 338 341 342 344 343 342 340 336 334 334
322 319 316 318 319 336 340 339 341 345 348 350 351 352 352 351 349 350 349 344 342 333 330 329 330 330 332 332 333 333 334 335 335 335 335 335 335 335 340 343 344 344 340 336 334 335 332 331 332
319 313 318 320 319 337 341 341 345 345 348 350 351 352 353 350 350 350 349 339 335 328 330 325 326 327 328 329 330 331 332 333 334 334 334 334 339 342 344 344 340 334 330 327 326 328 328 327 330
322 313 317 316 317 322 340 345 343 338 340 348 349 352 352 351 350 350 346 339 340 345 342 340 340 333 333 331 326 321 316 315 314 315 318 323 322 323 323 319 315 313 313 313 314 314 314 315 319
321 314 315 319 318 333 339 338 339 338 343 349 351 348 349 353 350 350 345 346 347 346 338 329 322 321 320 318 317 316 317 315 314 314 314 314 313 313 314 316 319 320 320 320 320 319 319 318 317
317 314 317 318 323 335 339 337 339 338 342 346 349 348 352 352 350 351 347 345 347 343 326 324 323 322 321 321 319 319 320 320 320 320 320 320 319 318 321 323 323 323 322 322 322 322 322 321 321
317 316 316 320 327 338 338 337 338 340 342 346 348 349 353 353 352 351 345 344 344 341 327 325 324 322 321 321 320 320 321 321 321 322 322 324 324 324 324 324 324 325 325 325 326 325 326 325 324
320 320 320 320 321 332 332 338 337 341 344 346 347 349 353 353 353 350 346 344 341 335 326 326 324 321 322 321 321 321 322 322 322 324 325 325 326 327 327 327 327 327 328 327 327 327 326 327 326
317 318 321 324 320 322 327 336 342 343 344 346 348 349 353 353 352 348 347 345 339 334 325 324 324 321 321 321 321 322 322 323 324 326 327 327 328 328 329 329 329 329 329 328 327 327 327 327 326
321 320 322 321 321 323 333 335 344 343 346 348 348 349 351 352 351 346 348 345 338 334 327 323 324 323 321 321 321 322 323 324 326 327 328 328 328 329 329 329 329 329 329 329 328 328 329 329 329
322 322 318 321 322 327 335 339 339 343 346 348 346 346 348 345 342 342 343 343 334 330 323 324 325 323 322 321 322 324 325 327 328 329 329 329 330 330 330 331 330 330 329 329 329 329 329 327 325
320 317 319 320 322 329 331 337 334 343 347 344 343 344 344 344 342 342 340 338 331 327 321 323 323 322 322 326 325 327 325 328 329 329 330 331 331 331 329 328 328 327 326 325 323 320 316 312 310
316 320 320 319 319 322 326 327 333 343 342 341 342 342 342 333 335 341 339 339 332 328 324 323 322 324 326 329 330 331 329 328 330 332 332 332 331 329 328 327 325 325 324 320 314 311 310 309 309
322 321 320 321 320 321 321 323 336 340 340 339 340 340 334 331 332 334 338 339 329 327 325 325 325 326 329 330 331 332 332 331 332 333 333 332 331 329 326 322 320 316 313 311 309 308 308 309 310
320 320 321 320 320 322 319 320 337 337 335 337 337 334 329 330 331 334 337 329 327 326 326 326 327 327 330 331 332 333 333 334 334 334 333 330 327 323 318 315 312 309 308 307 308 308 309 310 310
319 321 319 319 320 319 320 320 324 332 334 335 335 333 330 327 328 329 328 327 326 327 327 328 329 330 331 332 334 335 336 336 334 331 326 323 318 315 312 308 307 308 308 309 309 310 310 309 308
322 322 321 320 322 320 320 320 321 321 326 329 330 332 330 327 327 326 326 326 327 327 328 330 330 331 332 334 336 335 335 331 324 321 318 316 312 308 307 308 309 309 310 310 309 308 306 306 306
322 320 322 324 321 322 319 321 320 321 320 321 327 331 332 330 326 326 327 327 328 328 330 331 332 334 334 334 333 333 327 323 319 316 313 309 308 308 309 311 311 310 309 308 306 306 306 306 306
322 320 323 323 320 320 320 319 319 318 320 319 321 325 325 327 327 326 328 328 330 330 332 334 334 334 333 332 331 328 319 316 312 309 308 308 309 310 311 310 309 309 308 307 307 307 308 307 306
322 321 318 317 317 320 320 319 319 318 320 320 331 334 325 324 327 328 330 330 332 332 332 332 332 333 331 329 326 319 314 310 309 308 308 309 310 309 308 308 307 308 308 308 307 307 307 307 306
319 318 320 321 319 321 318 321 321 322 322 326 333 334 333 332 332 332 332 332 331 327 327 330 330 329 328 324 317 311 309 308 308 308 308 308 307 306 306 307 307 308 308 307 307 308 308 308 308
320 318 321 323 321 320 320 325 326 325 327 331 332 332 332 331 330 329 328 326 325 330 332 323 326 327 322 315 309 308 307 308 308 308 307 306 306 306 306 307 308 308 308 308 308 309 309 308 308
321 320 318 319 319 321 319 322 325 325 325 329 328 327 324 322 323 322 320 322 324 321 325 322 321 317 311 308 307 307 308 308 307 306 306 306 306 306 307 308 308 308 308 309 309 309 309 309 309
319 318 321 318 323 323 321 325 328 328 327 326 326 324 321 320 320 320 319 320 320 318 317 320 313 309 307 307 307 307 307 306 305 305 306 306 306 306 307 308 308 308 308 309 309 309 309 309 309
319 319 317 317 320 321 321 321 325 326 326 326 325 322 321 320 318 319 319 319 319 319 315 313 308 307 307 307 307 306 305 305 304 304 305 304 305 305 305 308 308 307 308 308 309 309 310 309 309
323 325 320 320 325 322 323 324 326 324 326 326 324 321 321 321 320 320 321 320 323 322 317 308 306 306 307 306 306 305 304 304 304 304 304 303 304 304 304 306 308 307 307 308 308 309 309 309 309
Wind_Speed
10 9 6 1 3 5 3 1 2 5 1 2 11 9 8 9 0 3 18 10 15 15 14 13 12 11 11 11 11 11 11 11 10 9 9 8 7 6 4 3 1 1 3 4 5 5 6 6 6
9 7 3 2 5 4 1 4 4 9 16 24 13 10 5 3 11 18 16 16 15 14 13 11 10 9 9 9 9 9 9 8 8 7 6 5 4 2 1 1 3 4 5 6 7 7 7 7 8
7 5 1 4 3 4 4 6 10 5 13 11 6 3 7 9 16 16 15 18 15 13 12 11 11 10 10 10 9 9 8 7 6 6 5 4 3 2 2 2 2 3 5 6 7 8 9 10 11
5 0 4 4 0 1 6 7 7 3 3 5 6 2 8 7 17 18 19 16 13 12 11 11 10 9 9 9 8 7 7 6 5 5 5 4 3 2 0 1 3 6 7 7 7 8 9 10 10
4 2 4 4 2 3 2 16 19 5 2 6 10 4 10 11 17 18 15 12 10 12 11 10 9 8 8 7 7 7 6 5 4 3 2 2 0 0 1 3 4 5 5 6 7 8 9 11 12
2 3 4 2 1 2 1 19 17 5 7 13 10 7 6 17 17 17 13 11 11 10 12 11 10 9 7 6 5 4 3 2 1 1 1 1 2 2 1 3 5 5 7 8 8 10 13 15 16
4 4 2 2 2 2 5 22 10 11 13 10 22 3 14 20 15 17 14 10 13 12 12 12 11 9 8 7 6 5 5 3 2 2 2 2 3 3 4 7 8 10 11 12 13 13 15 16 16
2 5 1 3 3 4 9 16 12 10 5 25 18 6 12 25 20 19 16 15 16 14 13 12 11 11 10 9 7 6 6 5 4 3 3 3 4 5 6 8 9 10 12 13 13 14 15 16 18
4 4 1 4 2 1 12 4 11 4 14 12 15 12 30 29 25 24 22 20 17 15 12 13 15 14 14 12 10 10 9 10 10 10 9 9 9 8 9 10 11 12 13 14 14 14 17 18 18
4 4 8 4 4 6 19 7 13 3 14 11 12 12 35 33 31 29 26 23 19 18 17 16 14 13 11 10 9 8 8 8 8 7 8 8 8 7 8 10 11 13 14 16 19 21 22 25 28
4 6 6 8 3 22 23 15 14 8 6 18 23 32 38 36 33 31 28 24 21 19 19 17 13 10 9 7 6 5 5 5 5 6 7 7 8 8 10 12 15 17 20 21 21 23 24 27 30
2 9 11 7 12 19 10 18 13 18 14 30 27 36 40 40 39 35 32 28 25 21 19 18 14 10 8 6 4 3 2 2 3 5 6 8 10 12 14 17 20 22 23 25 25 26 27 29 32
4 5 10 21 14 26 19 19 14 25 19 24 31 36 41 40 37 35 32 29 26 23 18 18 16 12 9 8 7 6 3 2 2 4 7 10 13 15 18 20 21 21 22 24 26 29 31 32 36
4 11 16 10 4 8 16 8 17 22 19 30 36 38 39 41 40 36 36 34 31 25 20 21 20 15 11 10 10 9 6 5 6 8 10 13 18 20 22 23 24 25 26 28 30 32 34 35 37
6 5 8 2 2 5 22 5 13 28 30 36 37 35 38 37 37 39 40 39 31 26 22 23 22 17 14 12 12 11 9 9 11 13 14 17 21 23 24 25 26 27 28 31 32 34 36 38 41
5 5 3 5 4 10 4 8 7 31 36 32 33 31 33 35 40 40 39 36 32 26 26 26 23 18 17 14 12 10 9 12 14 16 18 21 22 21 20 22 25 28 30 34 36 39 43 45 44
7 1 2 9 3 3 3 4 10 33 31 27 33 32 32 33 36 45 43 38 34 33 29 30 27 22 21 18 15 14 15 15 17 18 20 21 22 23 26 30 32 34 37 40 42 42 41 43 44
3 3 4 4 5 5 4 7 11 29 26 29 37 35 38 39 41 41 46 43 37 35 33 29 27 22 19 17 16 16 16 17 18 19 20 23 25 28 30 33 36 38 41 41 42 43 43 42 42
1 1 3 7 5 2 8 8 17 30 22 24 26 33 41 43 42 44 48 44 42 39 36 29 24 21 20 19 18 18 18 19 21 20 22 25 27 29 33 35 38 40 42 43 42 41 41 41 38
3 2 8 8 5 6 6 10 7 18 29 35 35 34 40 41 44 49 48 44 42 41 34 30 26 24 23 22 21 21 20 20 18 20 23 26 28 32 36 38 39 38 37 36 35 34 35 34 31
4 3 4 7 5 2 2 7 2 2 7 14 22 31 31 44 48 47 43 43 40 36 33 30 27 26 25 22 20 17 17 17 18 21 25 28 32 35 37 36 34 33 32 30 28 27 28 32 29
6 8 7 3 3 1 3 4 5 2 6 8 31 40 43 41 43 35 43 41 37 32 31 30 28 25 21 14 12 14 13 16 20 24 28 32 34 33 31 29 28 28 27 27 27 26 26 27 29
10 7 6 3 4 2 5 4 7 4 6 5 4 12 28 35 31 34 39 37 32 32 30 27 24 19 13 9 10 15 17 20 24 28 30 30 28 27 26 26 26 26 26 26 25 25 25 25 27
4 4 7 5 3 3 2 4 6 5 6 7 9 12 4 13 25 35 33 32 32 30 27 21 16 13 7 8 15 17 20 24 27 28 26 25 25 25 24 24 25 26 25 26 26 25 26 26 26
5 6 3 3 4 4 3 4 1 9 9 6 6 12 15 21 29 31 35 35 31 24 16 13 6 3 8 15 16 19 22 24 22 21 22 24 26 27 27 27 28 26 25 25 24 24 24 23 24
4 8 6 5 3 4 3 1 4 6 12 19 18 17 20 25 27 31 31 28 22 15 8 1 1 9 12 14 18 20 20 18 18 19 20 21 23 27 28 28 29 25 24 24 24 25 25 24 23
3 3 4 7 3 2 2 4 4 8 8 16 18 21 22 23 26 28 26 24 20 8 10 2 8 10 12 16 18 17 16 16 17 18 18 18 22 25 26 26 29 27 25 23 25 25 24 24 24
6 6 3 3 4 4 4 2 3 6 6 3 14 22 21 21 24 25 22 18 14 6 6 6 10 13 15 16 15 14 13 15 15 15 17 18 20 22 25 26 28 28 26 24 24 25 24 23 22
2 2 7 6 4 5 1 4 5 5 4 1 13 22 24 23 22 22 17 12 12 7 10 12 14 14 12 13 12 11 13 14 14 15 16 17 18 20 26 26 27 27 26 26 26 25 25 24 23
4 4 4 5 3 2 4 5 6 7 5 19 20 24 24 25 25 23 18 10 7 4 11 14 12 10 12 13 12 11 12 13 14 16 17 17 16 17 21 25 24 24 25 25 26 26 26 26 25
Wind_Direction
5 350 339 297 59 64 82 71 238 181 194 177 155 189 132 49 43 175 148 166 161 154 147 147 152 159 161 157 153 151 147 146 146 150 153 158 163 166 169 168 149 46 19 16 12 7 2 355 350
356 352 351 82 83 56 355 228 175 203 154 110 90 117 65 74 116 137 149 156 158 151 145 144 143 147 149 147 147 144 142 141 143 147 152 155 157 158 152 14 7 359 355 358 358 356 350 344 342
354 342 328 91 104 138 182 190 220 268 154 113 119 104 110 123 119 134 146 152 153 152 147 148 146 149 148 146 146 143 139 136 134 131 125 118 117 106 64 22 351 339 341 348 349 346 338 339 340
333 271 66 77 351 228 200 187 210 135 139 161 172 130 98 168 137 138 133 136 144 148 150 153 151 149 144 139 135 131 126 124 121 114 113 125 139 108 65 294 331 339 338 340 343 344 342 334 324
343 31 56 78 291 277 236 175 160 147 101 174 161 158 111 143 146 142 135 129 135 147 149 153 154 153 148 144 142 141 140 140 137 135 151 154 124 274 314 349 350 345 347 344 341 333 328 324 320
24 55 53 58 290 295 49 183 169 163 174 150 148 121 100 151 150 138 122 120 140 149 145 147 150 151 150 149 140 132 125 117 112 83 327 342 320 308 318 339 345 338 331 333 328 318 319 322 320
109 78 166 197 219 232 196 176 175 164 159 154 142 87 141 157 155 138 131 136 141 137 130 132 133 131 126 117 106 101 95 89 73 15 1 358 343 331 316 335 333 329 325 325 326 322 324 325 324
84 87 24 281 194 197 199 163 189 158 187 151 156 175 167 165 155 148 145 136 136 130 124 131 128 122 121 114 110 102 85 73 57 35 9 324 315 315 314 327 351 356 352 352 347 344 344 333 320
157 65 228 260 172 123 155 196 153 213 154 169 188 189 165 161 159 160 163 154 150 144 137 131 122 115 114 108 108 102 92 84 76 67 57 49 43 41 43 37 23 11 3 356 349 342 336 337 335
113 120 219 240 129 163 173 181 173 165 158 208 204 182 162 165 168 172 173 166 166 160 145 142 137 126 120 111 109 103 91 82 73 59 46 43 45 31 10 357 350 349 344 342 339 335 331 329 329
157 186 198 238 239 160 183 178 180 156 201 202 187 166 171 172 177 183 179 178 176 170 161 157 153 141 130 121 119 118 103 87 60 42 32 26 16 2 344 336 334 335 334 331 329 322 320 318 318
281 250 255 264 220 203 197 192 191 190 199 204 192 173 175 179 184 188 184 183 181 183 174 172 162 162 159 160 157 160 128 65 28 12 1 345 339 334 327 327 324 323 323 320 318 314 312 308 304
200 270 283 285 264 223 217 189 172 198 218 207 185 182 183 186 188 191 191 188 189 190 190 190 179 176 184 198 205 211 212 250 283 336 316 313 310 307 306 309 308 303 299 298 297 297 298 295 294
272 264 293 312 276 193 161 176 163 200 201 182 182 187 191 189 192 192 196 194 197 198 200 199 190 187 200 211 218 229 234 262 272 277 291 280 281 282 282 286 286 285 285 285 285 283 286 286 287
276 322 339 328 74 92 134 64 216 201 189 184 192 192 196 192 191 195 191 195 196 201 204 200 191 197 202 209 220 221 234 240 248 255 263 271 281 281 283 283 279 279 282 282 283 285 286 287 287
27 47 43 287 10 165 111 210 225 189 183 193 197 199 199 201 202 202 196 195 197 201 200 198 196 203 205 212 211 217 231 245 253 264 276 282 284 283 283 285 287 287 287 288 290 292 294 295 296
11 320 341 325 1 112 81 243 232 185 187 194 199 202 202 203 204 206 200 201 204 209 205 196 199 211 214 215 210 214 231 250 263 272 274 277 277 279 285 290 292 295 296 297 298 298 299 300 300
235 343 330 286 303 11 303 224 180 193 195 201 203 203 201 199 202 197 201 203 209 211 207 204 205 208 213 216 215 229 245 257 265 266 271 277 281 286 290 295 297 297 297 297 298 299 301 302 304
109 185 275 269 258 246 255 260 191 196 200 212 209 204 203 203 202 198 198 202 207 207 206 202 206 211 214 217 221 232 245 255 263 272 284 289 293 297 298 298 299 299 300 302 304 305 307 307 308
217 307 296 291 273 160 294 279 206 185 204 206 206 212 211 206 202 201 201 204 208 207 200 202 204 204 211 220 225 231 245 261 275 288 291 294 295 298 302 305 307 307 308 308 310 311 311 312 319
251 199 242 234 342 132 17 331 61 196 241 232 233 228 223 214 210 206 205 207 207 205 198 200 198 203 209 219 227 239 260 284 292 291 295 299 304 308 310 312 313 313 314 316 321 325 328 323 323
266 213 212 159 96 215 49 274 307 110 208 218 226 229 227 226 221 207 204 205 206 199 196 196 194 198 206 215 240 263 295 296 300 305 306 309 310 311 315 319 319 321 323 327 329 326 323 320 318
227 158 178 125 108 80 348 73 273 349 326 295 323 287 251 242 218 202 200 202 195 192 187 185 187 192 204 238 277 313 312 314 315 314 310 309 318 325 327 326 327 328 329 326 323 322 320 318 313
132 91 49 55 93 53 243 120 285 327 297 312 357 11 29 191 190 184 183 182 175 175 174 174 184 198 230 307 322 313 315 317 312 311 320 330 333 336 341 342 340 333 329 329 327 326 323 320 315
73 62 359 351 11 211 159 96 270 322 330 10 31 62 105 139 148 150 154 157 157 148 142 150 169 247 325 326 317 322 319 315 325 335 340 346 351 354 353 351 346 341 338 333 334 331 329 325 318
198 151 152 210 188 241 284 275 324 318 48 65 69 76 88 109 126 140 142 130 119 126 159 287 39 329 328 325 322 317 326 340 345 348 356 0 1 2 359 355 349 348 346 346 342 339 337 327 323
196 172 184 102 35 75 264 116 263 355 33 75 69 76 77 94 114 124 126 129 135 132 138 2 347 339 331 324 328 343 351 354 1 7 6 5 9 2 359 358 356 357 354 351 346 340 340 336 334
165 155 90 22 147 216 283 100 220 330 332 49 98 98 101 116 124 127 127 128 124 83 41 17 341 336 336 346 350 352 0 6 6 9 10 13 12 4 3 3 2 3 3 359 356 353 350 345 343
6 58 50 107 107 160 189 265 216 231 231 96 110 120 133 137 136 135 129 115 76 37 353 350 338 337 345 353 1 6 5 8 6 5 7 10 14 7 9 7 5 8 11 12 10 8 2 358 352
104 112 127 116 201 108 138 269 176 219 240 150 139 142 156 158 155 156 154 142 139 319 323 327 329 338 8 16 11 5 10 5 357 355 352 351 354 357 1 4 2 8 13 13 14 13 18 15 8